Location: Grace Baptist Church
(42.9955°N, 93.9555°W)
Time: 13:51:26
(UTC+00:00)

Daily predictions for brighter satellites

Satellite Brightness Start Highest point End
(mag) Time Altitude Azimuth Time Altitude Azimuth Time Altitude Azimuth
STARLINK-52 4.0 12:01:55 19° W 12:03:54 33° NNW 12:07:08 10° NE
Cosmos 1697 Rocket 3.7 12:01:37 13° NW 12:05:21 25° WSW 12:09:48 10° SSW
Okean O Rocket 1.5 12:01:22 10° N 12:05:44 77° WNW 12:10:02 10° SSW
SJ 16-02 1.3 12:02:13 10° SSW 12:06:32 59° WNW 12:10:53 10° NNE
NOSS 3-3 (A) 3.9 12:01:43 10° SW 12:07:41 76° NW 12:14:22 10° NE
NOSS 3-3 (C) 3.9 12:01:56 10° SW 12:07:49 76° NW 12:14:26 10° NE
Cosmos 1356 Rocket 4.1 12:04:30 10° NNW 12:08:26 34° W 12:12:19 10° SSW
STARLINK-80 3.9 12:04:49 10° SW 12:08:36 63° SE 12:12:24 10° ENE
SJ-12 4.3 12:05:03 10° N 12:09:00 43° WNW 12:12:54 10° SW
Cosmos 1825 3.5 12:05:36 10° SSE 12:09:10 44° E 12:12:46 10° NNE
ASTEX 1 4.5 12:06:45 10° SW 12:10:37 23° W 12:14:30 10° NW
FENGYUN 3A 3.6 12:06:48 10° N 12:12:12 68° WNW 12:17:33 10° SSW
CZ-2C R/B 3.9 12:09:55 10° NNW 12:12:56 16° WNW 12:15:53 10° W
Cosmos 858 Rocket 4.5 12:10:18 10° SSW 12:15:26 64° WNW 12:20:36 10° NNE
STARLINK-48 4.1 12:12:12 10° SW 12:16:01 57° SE 12:19:52 10° ENE
CZ-4B DEB 4.4 12:11:04 10° N 12:16:19 49° WNW 12:21:33 10° SW
STARLINK-29 4.4 12:16:29 13° WNW 12:19:01 26° NNW 12:22:01 10° NE
Lacrosse 5 2.5 12:14:44 10° W 12:19:28 38° NNW 12:24:13 10° NE
Cosmos 2082 Rocket 3.2 12:20:10 10° WSW 12:24:51 26° NW 12:29:35 10° N
In-Cosmos 22 Rocket 4.4 12:21:17 10° SSW 12:26:21 44° WNW 12:31:33 10° N
Cosmos 2151 3.3 12:22:55 10° SSW 12:27:02 45° WNW 12:31:12 10° N
SL-27 R/B 3.4 12:24:33 10° WSW 12:27:19 24° WNW 12:30:05 10° N
USA 267 3.5 12:21:22 10° NE 12:27:56 77° SE 12:34:29 10° SW
COSMOS 2487 3.8 12:26:43 10° S 12:30:01 44° ESE 12:33:20 10° NNE
Cosmos 2298 Rocket 4.3 12:25:58 10° SSW 12:31:15 78° ESE 12:36:35 10° NNE
SL-4 R/B 3.5 12:27:35 10° NW 12:32:02 34° NNE 12:36:24 10° E
METEOR-M 4.5 12:27:35 10° N 12:32:35 42° WNW 12:37:34 10° SW
CZ-4 R/B 4.4 12:32:09 10° NE 12:34:47 17° E 12:37:23 10° SE
Envisat 3.8 23:19:05 10° SE 23:23:22 28° ENE 23:27:40 10° N
Cosmos 1500 Rocket 3.8 23:22:53 10° N 23:27:08 46° ENE 23:31:19 10° SSE
BREEZE-M DEB (TANK) 3.8 23:23:50 10° W 23:28:28 32° NNW 23:30:49 10° NE
Cosmos 1697 Rocket 4.5 23:28:37 10° ESE 23:29:59 11° E 23:31:20 10° E
Cosmos 1869 4.5 23:28:48 10° SE 23:31:54 22° E 23:34:59 10° NE
Cosmos 2123 Rocket 4.1 23:25:53 10° S 23:32:06 89° WSW 23:38:20 10° N
Cosmos 1825 2.3 23:33:43 10° N 23:37:31 79° W 23:41:17 10° S
COSMO-SKYMED 1 3.7 23:34:34 10° NE 23:38:08 24° E 23:41:40 10° SSE
ATLAS 5 CENTAUR R/B 3.1 23:34:45 10° NNW 23:39:51 32° NE 23:45:34 10° ESE
Cosmos 1725 Rocket 4.2 23:35:23 10° N 23:41:44 81° W 23:48:02 10° S
SeaSat 1 2.4 23:43:59 10° SE 23:48:51 67° ENE 23:53:46 10° NNW
USA 215 4.1 23:43:41 11° ENE 23:49:11 33° NNE 23:54:54 10° NW
Sich 1 3.9 23:47:12 10° NNE 23:50:53 26° ENE 23:54:33 10° SE
USA 229 DEB 3.9 23:47:06 10° S 23:53:19 48° ESE 23:59:47 10° NE
USA 229 3.9 23:47:15 10° S 23:53:26 48° ESE 23:59:52 10° NE
Geosat 4.0 23:48:30 10° NNE 23:53:34 88° WNW 23:58:35 10° SSW
ERBS 4.4 23:53:11 10° SSE 23:54:41 13° ESE 23:55:10 12° ESE
